Melilla, Spain

3:37 AM CET on February 24, 2018 (GMT +0100)
Melilla

Weather History for GEML - December, 2013

Change the Weather History Date:

Thursday, December 12, 2013

  Actual Average Record
Temperature  
Mean Temperature 58 °F -  
Max Temperature 64 °F 63 °F 75 °F (1996)
Min Temperature 53 °F 52 °F 44 °F (2014)
Degree Days  
Heating Degree Days 6    
Growing Degree Days 8 (Base 50)    
Moisture  
Dew Point 54 °F    
Average Humidity 80    
Maximum Humidity 94    
Minimum Humidity 68    
Precipitation  
Precipitation 0.00 in 0.07 in - ()
Sea Level Pressure  
Sea Level Pressure 30.33 in    
Wind  
Wind Speed 4 mph ()    
Max Wind Speed 8 mph    
Max Gust Speed -    
Visibility 6.4 miles    
Events      
Averages and records for this station are not official NWS values.
T = Trace of Precipitation, MM = Missing Value Source: Averaged Metar Reports

Daily Weather History Graph

Daily Weather History Graph

Search for Another Location

Airport or City:

Trip Planner

Search our weather history database for the weather conditions in past years. The results will help you decide how hot, cold, wet, or windy it might be!

Date:

Astronomy

Dec. 12, 2013 Rise Set
Actual Time 8:11 AM CET 6:00 PM CET
Civil Twilight 7:42 AM CET 6:28 PM CET
Nautical Twilight 7:11 AM CET 6:59 PM CET
Astronomical Twilight 6:40 AM CET 7:30 PM CET
Moon 2:51 PM CET (12/12) 3:27 AM CET (12/12)
Length of Visible Light 10h 45m
Length of Day
9h 48m
Waxing Gibbous, 78% of the Moon is Illuminated
Dec 12
Waxing Gibbous
Dec 17
Full
Dec 25
Last Quarter
Jan 1
New
Jan 8
First Quarter

Hourly Weather History & Observations

Time (CET) Temp. Dew Point Humidity Pressure Visibility Wind Dir Wind Speed Gust Speed Precip Events Conditions
6:00 AM 57.2 °F 53.6 °F 88% 30.33 in - WSW 3.5 mph - N/A   Clear
6:30 AM 55.4 °F 53.6 °F 94% 30.33 in - WSW 4.6 mph - N/A   Clear
7:00 AM 55 °F 52 °F 86% 30.33 in 7 mi WSW 4.6 mph - -   Scattered Clouds
7:00 AM 55.4 °F 51.8 °F 88% 30.33 in 6.2 mi WSW 4.6 mph - N/A   Partly Cloudy
7:30 AM 55.4 °F 50.0 °F 82% 30.33 in 6.2 mi WSW 5.8 mph - N/A   Partly Cloudy
8:00 AM 55.4 °F 50.0 °F 82% 30.33 in 6.2 mi WSW 6.9 mph - N/A   Partly Cloudy
8:30 AM 55.4 °F 51.8 °F 88% 30.33 in 6.2 mi WSW 4.6 mph - N/A   Partly Cloudy
9:00 AM 53.6 °F 51.8 °F 94% 30.33 in 6.2 mi Variable 1.2 mph - N/A   Partly Cloudy
9:30 AM 59.0 °F 55.4 °F 88% 30.36 in 6.2 mi Variable 2.3 mph - N/A   Partly Cloudy
10:00 AM 60.8 °F 55.4 °F 82% 30.36 in 6.2 mi West 5.8 mph - N/A   Partly Cloudy
10:30 AM 60.8 °F 55.4 °F 82% 30.36 in 6.2 mi West 3.5 mph - N/A   Partly Cloudy
11:00 AM 62.6 °F 55.4 °F 77% 30.36 in 6.2 mi WNW 3.5 mph - N/A   Partly Cloudy
11:30 AM 64.4 °F 55.4 °F 73% 30.36 in 6.2 mi West 3.5 mph - N/A   Partly Cloudy
12:00 PM 62.6 °F 53.6 °F 72% 30.36 in 6.2 mi Variable 2.3 mph - N/A   Partly Cloudy
12:30 PM 64.4 °F 53.6 °F 68% 30.36 in 6.2 mi Variable 2.3 mph - N/A   Partly Cloudy
1:00 PM 63 °F 56 °F 70% 30.35 in 9 mi NNE 4.6 mph - -   Scattered Clouds
1:00 PM 62.6 °F 57.2 °F 82% 30.33 in 6.2 mi NNE 4.6 mph - N/A   Partly Cloudy
1:30 PM 64.4 °F 57.2 °F 77% 30.33 in 6.2 mi North 4.6 mph - N/A   Partly Cloudy
2:00 PM 62.6 °F 57.2 °F 82% 30.33 in 6.2 mi NNE 4.6 mph - N/A   Partly Cloudy
2:30 PM 62.6 °F 55.4 °F 77% 30.33 in 6.2 mi North 5.8 mph - N/A   Partly Cloudy
3:00 PM 64.4 °F 53.6 °F 68% 30.30 in 6.2 mi North 5.8 mph - N/A   Partly Cloudy
3:30 PM 62.6 °F 53.6 °F 72% 30.30 in 6.2 mi North 8.1 mph - N/A   Partly Cloudy
4:00 PM 62.6 °F 53.6 °F 72% 30.30 in 6.2 mi North 8.1 mph - N/A   Partly Cloudy
4:30 PM 62.6 °F 55.4 °F 77% 30.30 in 6.2 mi NNW 8.1 mph - N/A   Partly Cloudy
5:00 PM 60.8 °F 53.6 °F 77% 30.30 in 6.2 mi North 8.1 mph - N/A   Partly Cloudy
5:30 PM 60.8 °F 55.4 °F 82% 30.30 in 6.2 mi North 3.5 mph - N/A   Partly Cloudy
6:00 PM 60.8 °F 55.4 °F 82% 30.30 in 6.2 mi Variable 2.3 mph - N/A   Partly Cloudy
6:30 PM 60.8 °F 53.6 °F 77% 30.33 in 6.2 mi NE 3.5 mph - N/A   Partly Cloudy
7:00 PM 60 °F 53 °F 72% 30.33 in 7 mi Calm Calm - -   Partly Cloudy
7:00 PM 60.8 °F 53.6 °F 77% 30.33 in 6.2 mi Variable 2.3 mph - N/A   Scattered Clouds
7:30 PM 60.8 °F 53.6 °F 77% 30.33 in 6.2 mi Variable 2.3 mph - N/A   Scattered Clouds